Regional Weather Roundup
Issued by NWS Goodland, KS

Home | Current Version | Previous Version | Text Only | Print | Product List | Glossary On
Versions: 1 2 3 4 5 6 7 8 9 10 11 12 13 14 15 16 17 18 19 20 21 22 23 24 25 26 27 28 29 30 31 32 33 34 35 36 37 38 39 40 41 42 43 44 45 46 47 48 49 50
000
ASUS43 KGLD 211408
RWRGLD

GOODLAND FORECAST AREA HOURLY WEATHER ROUNDUP
NATIONAL WEATHER SERVICE GOODLAND KS
700 AM MST TUE NOV 21 2017

...OFFICIAL OBSERVATIONS...

CITY           SKY/WX    TMP DP  RH WIND       PRES   REMARKS
GOODLAND KS    PTCLDY    41  24  51 N24G36    30.13R
HILL CITY KS   CLEAR     42  26  53 N23G33    30.09R
IMPERIAL NEB   CLOUDY    36  23  59 N14       30.20R
MCCOOK NEB     PTCLDY    37  26  64 N20       30.13R
AKRON CO       PTCLDY    33  22  63 NE16      30.17R
BURLINGTON CO  CLOUDY    46  28  49 N21G32    30.11R
LIMON CO       LGT RAIN  43  37  79 N12       30.16R
$$

...UNOFFICIAL OBSERVATIONS...

CITY           SKY/WX    TMP DP  RH WIND       PRES   REMARKS
COLBY KS       CLEAR     41  28  60 N24G30    30.13R
NORTON KS      CLEAR     37  19  48 N16G25    30.12
OBERLIN KS     FAIR      39  21  48 N16G29    30.18R
SHARON SPRINGS   N/A     52  31  43 N18         N/A
YUMA CO        FAIR      34  23  64 N14       30.17R
$$



USA.gov is the U.S. government's official web portal to all federal, state and local government web resources and services.